Weather observations for the past three days for
Ely, Ely Municipal Airport
Imperial (Metric)
Date Time (cdt) Wind (mph) Vis. (mi.) Weather Sky Cond. Temperature (ºF) Relative Humidity Wind Chill (°F) Heat Index (°F) Pressure Precipitation (in)
Air Dwpt 6 hour altimeter (in) sea level (mb) 1 hr 3 hr 6 hr
Max. Min.
12 22:15 Calm 10.00 Mostly Cloudy SCT060 BKN090 71.6 59 65% 30.05 0.0
12 21:55 S 3 10.00 Partly Cloudy SCT060 SCT090 73.4 60.8 65% 30.05 0.0
12 21:35 S 3 10.00 Partly Cloudy SCT090 73.4 60.8 65% 30.04 0.0
12 21:15 S 5 10.00 Partly Cloudy SCT060 SCT090 73.4 59 61% 30.04 0.0
12 20:55 Calm 10.00 Fair CLR 75.2 59 57% 78 30.04 0.0
12 20:35 Calm 10.00 Partly Cloudy SCT085 75.2 59 57% 78 30.03 0.0
12 20:15 Calm 10.00 Partly Cloudy SCT095 77 59 54% 79 30.03 0.0
12 19:55 SW 5 10.00 Partly Cloudy SCT080 78.8 57.2 48% 80 30.03 0.0
12 19:35 SW 5 10.00 Partly Cloudy SCT080 80.6 57.2 45% 81 30.02 0.0
12 19:15 SW 6 10.00 Partly Cloudy SCT090 80.6 57.2 45% 81 30.02 0.0
12 18:55 SW 9 10.00 Partly Cloudy SCT090 82.4 55.4 40% 82 30.01 0.0
12 18:35 SW 9 10.00 Partly Cloudy SCT090 82.4 57.2 42% 82 30.01 0.0
12 18:15 SW 9 G 16 10.00 Partly Cloudy SCT090 82.4 57.2 42% 82 30.01 0.0
12 17:55 SW 8 10.00 Partly Cloudy SCT055 SCT080 SCT090 82.4 59 45% 82 30 0.0
12 17:35 SW 6 10.00 Fair CLR 82.4 57.2 42% 82 30.01 0.0
12 17:15 SW 7 G 10 10.00 Partly Cloudy SCT065 82.4 55.4 40% 82 30.01 0.0
12 16:55 SW 6 10.00 Partly Cloudy SCT065 84.2 55.4 37% 83 30.01 0.0
12 16:35 SW 12 10.00 Partly Cloudy SCT065 84.2 55.4 37% 83 30.02 0.0
12 16:15 SW 9 10.00 Fair CLR 84.2 55.4 37% 83 30.02 0.0
12 15:55 SW 10 10.00 Partly Cloudy SCT055 84.2 55.4 37% 83 30.02 0.0
12 15:35 SW 12 G 16 10.00 Partly Cloudy SCT055 84.2 55.4 37% 83 30.02 0.0
12 15:15 SW 5 10.00 Partly Cloudy SCT055 82.4 57.2 42% 82 30.02 0.0
12 14:55 W 10 10.00 Partly Cloudy SCT055 82.4 57.2 42% 82 30.03 0.0
12 14:35 SW 8 10.00 Partly Cloudy SCT095 82.4 55.4 40% 82 30.03 0.0
12 14:15 SW 9 10.00 Partly Cloudy SCT085 82.4 57.2 42% 82 30.04 0.0
12 13:55 SW 8 10.00 Partly Cloudy SCT085 80.6 57.2 45% 81 30.04 0.0
12 13:35 W 6 10.00 Partly Cloudy SCT060 82.4 57.2 42% 82 30.05 0.0
12 13:15 W 8 10.00 Partly Cloudy SCT080 82.4 57.2 42% 82 30.05 0.0
12 12:55 W 9 10.00 Partly Cloudy SCT050 80.6 57.2 45% 81 30.05 0.0
12 12:35 SW 8 10.00 Partly Cloudy SCT050 SCT070 80.6 57.2 45% 81 30.06 0.0
12 12:15 SW 8 10.00 Partly Cloudy SCT050 80.6 57.2 45% 81 30.06 0.0
12 11:55 SW 7 10.00 Partly Cloudy SCT050 80.6 59 48% 81 30.06 0.0
12 11:35 W 8 G 18 10.00 Partly Cloudy SCT048 SCT060 80.6 57.2 45% 81 30.06 0.0
12 11:15 SW 10 10.00 Partly Cloudy SCT043 SCT060 78.8 60.8 54% 80 30.06 0.0
12 10:55 SW 7 10.00 Partly Cloudy SCT043 78.8 60.8 54% 80 30.06 0.0
12 10:35 W 10 G 20 10.00 Fair CLR 78.8 60.8 54% 80 30.06 0.0
12 10:15 W 8 10.00 Fair CLR 78.8 62.6 58% 80 30.05 0.0
12 09:55 SW 9 10.00 Fair CLR 77 62.6 61% 79 30.06 0.0
12 09:35 SW 7 10.00 Partly Cloudy SCT080 75.2 62.6 65% 77 30.06 0.0
12 08:55 SW 7 10.00 Partly Cloudy SCT090 73.4 62.6 69% 30.06 0.0
12 08:35 SW 5 10.00 Fair CLR 73.4 64.4 74% 30.07 0.0
12 08:15 SW 5 10.00 Partly Cloudy SCT085 71.6 66.2 83% 30.06 0.0
12 07:55 SW 3 10.00 Partly Cloudy SCT085 69.8 66.2 88% 30.06 0.0
12 07:35 Calm 10.00 Partly Cloudy SCT085 66.2 66.2 100% 30.06 0.0
12 07:15 Calm 10.00 Partly Cloudy SCT085 62.6 62.6 100% 30.06 0.0
12 06:55 Calm 10.00 Fair CLR 60.8 60.8 100% 30.06 0.0
12 06:35 Calm 10.00 Partly Cloudy SCT085 60.8 60.8 100% 30.06 0.0
12 06:15 Calm 10.00 Partly Cloudy SCT085 57.2 57.2 100% 30.05 0.0
12 05:55 Calm 10.00 Partly Cloudy SCT085 57.2 57.2 100% 30.06 0.0
12 05:35 Calm 10.00 Partly Cloudy SCT085 57.2 57.2 100% 30.05 0.0
12 05:15 Calm 10.00 Mostly Cloudy BKN085 57.2 57.2 100% 30.05 0.0
12 04:55 SE 3 10.00 Overcast OVC095 57.2 57.2 100% 30.05 0.0
12 04:35 Calm 10.00 Overcast OVC095 57.2 57.2 100% 30.05 0.0
12 04:15 Calm 10.00 Overcast OVC095 59 59 100% 30.04 0.0
12 03:55 Calm 10.00 Overcast OVC095 59 59 100% 30.04 0.0
12 03:35 Calm 10.00 Mostly Cloudy BKN085 59 59 100% 30.04 0.0
12 03:15 Calm 10.00 Partly Cloudy SCT080 60.8 60.8 100% 30.04 0.0
12 02:55 Calm 10.00 Mostly Cloudy BKN080 60.8 60.8 100% 30.05 0.0
12 02:35 Calm 10.00 Mostly Cloudy BKN090 60.8 60.8 100% 30.05 0.0
12 02:15 Calm 10.00 Mostly Cloudy BKN090 60.8 60.8 100% 30.04 0.0
12 01:55 Calm 10.00 Mostly Cloudy BKN090 60.8 60.8 100% 30.05 0.0
12 01:35 Calm 10.00 Partly Cloudy SCT100 60.8 60.8 100% 30.05 0.0
12 01:15 Calm 10.00 Partly Cloudy SCT110 62.6 57.2 83% 30.05 0.0
12 00:55 Calm 10.00 Partly Cloudy SCT090 64.4 57.2 78% 30.05 0.0
12 00:35 Calm 10.00 Mostly Cloudy BKN090 66.2 57.2 73% 30.05 0.0
12 00:15 Calm 10.00 Fair CLR 68 57.2 69% 30.05 0.0
11 23:55 Calm 10.00 Partly Cloudy SCT100 68 57.2 69% 30.04 0.0
11 23:35 Calm 10.00 Mostly Cloudy BKN100 69.8 57.2 64% 30.04 0.0
11 23:15 Calm 10.00 Fair CLR 69.8 57.2 64% 30.04 0.0
11 22:55 S 3 10.00 Partly Cloudy SCT090 69.8 57.2 64% 30.04 0.0
11 22:35 S 3 10.00 Mostly Cloudy BKN090 69.8 57.2 64% 30.04 0.0
11 22:15 S 3 10.00 Partly Cloudy SCT090 69.8 59 69% 30.04 0.0
11 21:55 S 3 10.00 Partly Cloudy SCT090 71.6 60.8 69% 30.04 0.0
11 21:35 S 3 10.00 Partly Cloudy SCT090 71.6 60.8 69% 30.04 0.0
11 21:15 S 3 10.00 Partly Cloudy SCT090 73.4 60.8 65% 30.04 0.0
11 20:55 S 5 10.00 Partly Cloudy SCT090 73.4 60.8 65% 30.03 0.0
11 20:35 Calm 10.00 Partly Cloudy SCT090 75.2 59 57% 78 30.03 0.0
11 20:15 Calm 10.00 Partly Cloudy SCT100 77 59 54% 79 30.03 0.0
11 19:55 Calm 10.00 Fair CLR 78.8 59 51% 80 30.03 0.0
11 19:35 Calm 10.00 Fair CLR 78.8 59 51% 80 30.03 0.0
11 19:15 S 3 10.00 Fair CLR 78.8 57.2 48% 80 30.04 0.0
11 18:55 S 3 10.00 Partly Cloudy SCT080 78.8 57.2 48% 80 30.03 0.0
11 18:35 Calm 10.00 Partly Cloudy SCT080 80.6 55.4 42% 81 30.04 0.0
11 18:15 SW 5 10.00 Partly Cloudy SCT090 80.6 55.4 42% 81 30.04 0.0
11 17:55 SW 6 10.00 Partly Cloudy SCT090 80.6 53.6 39% 80 30.04 0.0
11 17:35 SW 6 10.00 Partly Cloudy SCT090 80.6 53.6 39% 80 30.04 0.0
11 17:15 SW 9 10.00 Fair CLR 80.6 55.4 42% 81 30.04 0.0
11 16:55 SW 7 10.00 Partly Cloudy SCT060 80.6 53.6 39% 80 30.05 0.0
11 16:35 SW 3 10.00 Partly Cloudy SCT060 80.6 55.4 42% 81 30.05 0.0
11 16:15 SW 5 10.00 Partly Cloudy SCT050 80.6 57.2 45% 81 30.05 0.0
11 15:55 SW 7 10.00 Partly Cloudy SCT060 80.6 57.2 45% 81 30.06 0.0
11 15:35 W 6 10.00 Fair CLR 80.6 55.4 42% 81 30.06 0.0
11 15:15 S 9 10.00 Fair CLR 80.6 57.2 45% 81 30.07 0.0
11 14:55 S 7 10.00 Fair CLR 80.6 55.4 42% 81 30.07 0.0
11 14:35 SW 9 10.00 Partly Cloudy SCT049 80.6 55.4 42% 81 30.07 0.0
11 14:15 SW 5 10.00 Partly Cloudy SCT049 80.6 55.4 42% 81 30.07 0.0
11 13:55 W 5 10.00 Partly Cloudy SCT047 78.8 57.2 48% 80 30.08 0.0
11 13:35 Calm 10.00 Partly Cloudy SCT080 78.8 57.2 48% 80 30.08 0.0
11 13:15 Calm 10.00 Partly Cloudy SCT043 78.8 57.2 48% 80 30.09 0.0
11 12:55 S 7 10.00 Partly Cloudy SCT070 77 57.2 51% 79 30.09 0.0
11 12:35 SW 5 10.00 Fair CLR 77 59 54% 79 30.1 0.0
11 12:15 W 3 10.00 Partly Cloudy SCT110 75.2 59 57% 78 30.1 0.0
11 11:55 S 3 10.00 Fair CLR 75.2 59 57% 78 30.11 0.0
11 11:35 SW 3 10.00 Fair CLR 73.4 59 61% 30.11 0.0
11 11:15 S 5 10.00 Fair CLR 73.4 57.2 57% 30.11 0.0
11 10:55 S 3 10.00 Fair CLR 73.4 57.2 57% 30.12 0.0
11 10:35 S 3 10.00 Partly Cloudy SCT090 71.6 57.2 61% 30.12 0.0
11 10:15 SW 6 10.00 Partly Cloudy SCT080 71.6 57.2 61% 30.12 0.0
11 09:55 SW 5 10.00 Partly Cloudy SCT070 69.8 57.2 64% 30.12 0.0
11 09:35 SW 6 10.00 Fair CLR 69.8 57.2 64% 30.12 0.0
11 09:15 S 5 10.00 Partly Cloudy SCT090 68 57.2 69% 30.12 0.0
11 08:55 S 3 10.00 Partly Cloudy SCT080 66.2 60.8 83% 30.12 0.0
11 08:35 S 6 10.00 Fair CLR 64.4 60.8 88% 30.11 0.0
11 08:15 Calm 10.00 Fair CLR 64.4 62.6 94% 30.12 0.0
11 07:55 S 3 10.00 Fair CLR 62.6 60.8 94% 30.12 0.0
11 07:35 S 3 10.00 Partly Cloudy SCT048 SCT095 60.8 60.8 100% 30.12 0.0
11 07:15 Calm 10.00 Partly Cloudy SCT050 SCT085 59 59 100% 30.11 0.0
11 06:55 Calm 10.00 Fair CLR 57.2 57.2 100% 30.11 0.0
11 06:35 S 3 10.00 Fair CLR 57.2 57.2 100% 30.11 0.0
11 06:15 Calm 10.00 Partly Cloudy SCT085 55.4 55.4 100% 30.11 0.0
11 05:55 Calm 7.00 Partly Cloudy SCT085 53.6 53.6 100% 30.11 0.0
11 05:35 Calm 10.00 Partly Cloudy SCT085 53.6 53.6 100% 30.11 0.0
11 05:15 Calm 10.00 Mostly Cloudy BKN085 53.6 53.6 100% 30.11 0.0
11 04:55 Calm 10.00 Partly Cloudy SCT085 53.6 53.6 100% 30.11 0.0
11 04:35 Calm 10.00 Fair CLR 55.4 55.4 100% 30.11 0.0
11 04:15 SE 3 10.00 Partly Cloudy SCT095 55.4 55.4 100% 30.11 0.0
11 03:55 Calm 10.00 Fair CLR 55.4 55.4 100% 30.1 0.0
11 03:35 Calm 10.00 Partly Cloudy SCT090 57.2 57.2 100% 30.1 0.0
11 03:15 Calm 10.00 Mostly Cloudy BKN090 57.2 57.2 100% 30.09 0.0
11 02:55 Calm 10.00 Overcast OVC090 57.2 57.2 100% 30.09 0.0
11 02:35 Calm 10.00 Overcast OVC090 57.2 57.2 100% 30.09 0.0
11 02:15 Calm 10.00 Overcast OVC090 57.2 57.2 100% 30.09 0.0
11 01:55 Calm 10.00 Mostly Cloudy BKN100 57.2 57.2 100% 30.09 0.0
11 01:35 Calm 10.00 Partly Cloudy SCT100 59 59 100% 30.1 0.0
11 01:15 Calm 10.00 Partly Cloudy SCT110 59 59 100% 30.09 0.0
11 00:55 Calm 10.00 Partly Cloudy SCT095 59 59 100% 30.09 0.0
11 00:35 Calm 10.00 Mostly Cloudy BKN095 60.8 60.8 100% 30.09 0.0
11 00:15 Calm 10.00 Fair CLR 60.8 60.8 100% 30.09 0.0
10 23:55 Calm 10.00 Partly Cloudy SCT080 60.8 60.8 100% 30.09 0.0
10 23:35 S 3 10.00 Partly Cloudy SCT080 62.6 60.8 94% 30.09 0.0
10 23:15 Calm 10.00 Partly Cloudy SCT090 62.6 62.6 100% 30.09 0.0
10 22:55 S 3 10.00 Mostly Cloudy BKN090 62.6 62.6 100% 30.09 0.0
10 22:35 S 3 10.00 Overcast OVC090 62.6 59 88% 30.09 0.0
10 22:15 Calm 10.00 Mostly Cloudy BKN080 64.4 59 83% 30.08 0.0
10 21:55 Calm 10.00 Partly Cloudy SCT080 64.4 60.8 88% 30.08 0.0
10 21:35 Calm 10.00 Fair CLR 66.2 60.8 83% 30.07 0.0
10 21:15 Calm 10.00 Partly Cloudy SCT085 66.2 60.8 83% 30.06 0.0
10 20:55 S 3 10.00 Partly Cloudy SCT085 68 60.8 78% 30.06 0.0
10 20:35 S 3 10.00 Fair CLR 69.8 60.8 73% 30.05 0.0
10 20:15 S 3 10.00 Partly Cloudy SCT085 71.6 60.8 69% 30.05 0.0
10 19:55 S 5 10.00 Partly Cloudy SCT095 71.6 60.8 69% 30.05 0.0
10 19:35 S 5 10.00 Fair CLR 73.4 60.8 65% 30.04 0.0
10 19:15 SE 3 10.00 Fair CLR 73.4 60.8 65% 30.04 0.0
10 18:55 SE 5 10.00 Fair CLR 73.4 60.8 65% 30.04 0.0
10 18:35 S 5 10.00 Partly Cloudy SCT050 75.2 60.8 61% 77 30.04 0.0
10 18:15 S 7 10.00 Partly Cloudy SCT050 75.2 60.8 61% 77 30.04 0.0
10 17:55 SE 6 10.00 Partly Cloudy SCT060 SCT080 75.2 60.8 61% 77 30.04 0.0
10 17:35 SE 7 10.00 Partly Cloudy SCT050 75.2 60.8 61% 77 30.04 0.0
10 17:15 SE 8 10.00 Partly Cloudy SCT055 SCT085 77 60.8 57% 79 30.03 0.0
10 16:55 NE 6 10.00 Partly Cloudy SCT085 78.8 57.2 48% 80 30.03 0.0
10 16:35 NE 9 10.00 Partly Cloudy SCT085 77 57.2 51% 79 30.03 0.0
10 16:15 NE 5 10.00 Partly Cloudy SCT085 75.2 55.4 50% 78 30.03 0.0
10 15:55 NE 6 10.00 Partly Cloudy SCT085 SCT090 77 55.4 47% 79 30.03 0.0
10 15:35 Calm 10.00 Partly Cloudy SCT095 75.2 57.2 54% 78 30.03 0.0
10 15:15 Calm 10.00 Partly Cloudy SCT095 78.8 57.2 48% 80 30.03 0.0
10 14:55 NE 7 10.00 Partly Cloudy SCT070 SCT080 78.8 57.2 48% 80 30.03 0.0
10 14:35 N 5 10.00 Partly Cloudy SCT070 77 55.4 47% 79 30.03 0.0
10 14:15 NE 5 10.00 Fair CLR 78.8 55.4 45% 79 30.03 0.0
10 13:55 NE 6 10.00 Partly Cloudy SCT070 77 55.4 47% 79 30.03 0.0
10 13:35 E 8 10.00 Thunderstorm in Vicinity SCT070 77 55.4 47% 79 30.03 0.0
10 13:15 N 6 10.00 Fair CLR 77 55.4 47% 79 30.03 0.0
10 12:55 NE 6 10.00 Thunderstorm CLR 77 55.4 47% 79 30.03 0.0
10 12:35 NE 5 10.00 Thunderstorm in Vicinity SCT100 75.2 59 57% 78 30.03 0.0
10 12:15 NE 3 10.00 Fair CLR 75.2 57.2 54% 78 30.03 0.0
10 11:55 NE 7 10.00 Fair CLR 75.2 59 57% 78 30.03 0.0
10 11:35 NE 5 10.00 Fair CLR 75.2 60.8 61% 77 30.03 0.0
10 11:15 NE 3 10.00 Partly Cloudy SCT080 73.4 60.8 65% 30.03 0.0
10 10:55 NE 5 10.00 Partly Cloudy SCT080 73.4 60.8 65% 30.03 0.0
10 10:35 NE 5 10.00 Partly Cloudy SCT080 73.4 60.8 65% 30.03 0.0
10 10:15 N 5 10.00 Partly Cloudy SCT080 71.6 62.6 73% 30.02 0.0
10 09:55 N 3 10.00 Partly Cloudy SCT090 71.6 62.6 73% 30.02 0.0
10 09:35 NE 5 10.00 Partly Cloudy SCT075 69.8 62.6 78% 30.02 0.0
10 09:15 NE 3 10.00 Fair CLR 69.8 60.8 73% 30.01 0.0
10 08:55 NE 5 10.00 Fair CLR 68 60.8 78% 30.01 0.0
10 08:35 NE 5 10.00 Partly Cloudy SCT095 68 62.6 83% 30.01 0.0
10 08:15 Calm 10.00 Partly Cloudy SCT095 66.2 64.4 94% 30 0.0
10 07:55 Calm 10.00 Fair CLR 62.6 62.6 100% 30 0.0
10 07:35 Calm 10.00 Fair CLR 60.8 60.8 100% 30 0.0
10 07:15 Calm 10.00 Fair CLR 57.2 57.2 100% 30 0.0
10 06:55 Calm 10.00 Partly Cloudy SCT110 57.2 57.2 100% 29.99 0.0
10 06:35 Calm 10.00 Mostly Cloudy BKN110 55.4 55.4 100% 30 0.0
10 06:15 Calm 10.00 Partly Cloudy SCT120 53.6 53.6 100% 29.99 0.0
10 05:55 Calm 7.00 Partly Cloudy SCT100 53.6 53.6 100% 29.98 0.0
10 05:35 Calm 10.00 Mostly Cloudy BKN100 53.6 53.6 100% 29.98 0.0
10 05:15 Calm 10.00 Mostly Cloudy BKN100 53.6 53.6 100% 29.98 0.0
10 04:55 Calm 10.00 Mostly Cloudy BKN090 53.6 53.6 100% 29.97 0.0
10 04:35 Calm 10.00 Partly Cloudy SCT090 53.6 53.6 100% 29.96 0.0
10 04:15 Calm 10.00 Partly Cloudy SCT100 53.6 53.6 100% 29.96 0.0
10 03:55 Calm 10.00 Fair CLR 53.6 53.6 100% 29.96 0.0
10 03:35 Calm 7.00 Fair CLR 55.4 55.4 100% 29.95 0.0
10 03:15 Calm 10.00 Partly Cloudy SCT080 53.6 53.6 100% 29.95 0.0
10 02:55 Calm 10.00 Partly Cloudy SCT080 55.4 55.4 100% 29.96 0.0
10 02:35 Calm 10.00 Partly Cloudy SCT080 55.4 55.4 100% 29.96 0.0
10 02:15 Calm 7.00 Partly Cloudy SCT090 55.4 55.4 100% 29.96 0.0
10 01:55 Calm 10.00 Overcast OVC090 55.4 55.4 100% 29.96 0.0
10 01:35 Calm 10.00 Overcast OVC090 57.2 57.2 100% 29.97 0.0
10 01:15 Calm 10.00 Mostly Cloudy BKN090 55.4 55.4 100% 29.96 0.0
10 00:55 Calm 10.00 Partly Cloudy SCT100 55.4 55.4 100% 29.96 0.0
10 00:35 Calm 10.00 Partly Cloudy SCT110 57.2 57.2 100% 29.96 0.0
10 00:15 Calm 10.00 Partly Cloudy SCT110 59 59 100% 29.96 0.0
09 23:55 Calm 10.00 Partly Cloudy SCT090 59 59 100% 29.96 0.0
09 23:35 Calm 10.00 Mostly Cloudy BKN090 59 59 100% 29.96 0.0
09 23:15 Calm 10.00 Fair CLR 60.8 60.8 100% 29.96 0.0
09 22:55 Calm 10.00 Fair CLR 60.8 60.8 100% 29.96 0.0
09 22:35 Calm 10.00 Fair CLR 60.8 60.8 100% 29.96 0.0
Date Time (cdt) Wind (mph) Vis. (mi.) Weather Sky Cond. Air Dwpt Max. Min. Relative Humidity Wind Chill (°F) Heat Index (°F) altimeter (in) sea level (mb) 1 hr 3 hr 6 hr
6 hour
Temperature (ºF) Pressure Precipitation (in)